{"data":{"norad_id":61626,"intl_designator":"2024-191F","name":"STARLINK-32333","alt_names":[],"object_type":"PAYLOAD","status":"ACTIVE","operator":null,"country":"US","launch_date":"2024-10-23","launch_site_code":"AFETR","launch_vehicle":null,"mission":null,"orbit_class":"UNKNOWN","rcs_meters":null,"size_class":null,"mass_kg":null,"dimensions":null,"purposes":["comms"],"wikipedia_slug":null,"has_3d_model":false,"image_url":null,"decayed_at":null,"tle_current":{"epoch":"2026-09-20T22:19:11.890272Z","epoch_age_seconds":154923,"freshness":"FRESH","line1":"1 61626U 24191F   26263.92999873  .00000966  00000+0  44614-4 0  9996","line2":"2 61626  43.0013 135.5454 0001270 272.4456  87.6250 15.27577184107352","mean_motion":15.27577184,"eccentricity":0.000127,"inclination_deg":43.0013,"raan_deg":135.5454,"arg_perigee_deg":272.4456,"mean_anomaly_deg":87.625,"bstar":4.4614e-5,"rev_number":10735,"period_min":94.266922488939,"perigee_km":482.18615646458,"apogee_km":483.92889987473,"semimajor_km":6861.1945281697,"source":"CELESTRAK","updated_at":"2026-09-22T09:00:49.395604Z"}}}